Simultaneous Nadir Overpasses (SNOs) Predictions

Prediction of SNOs between METOP-B and NOAA-19 Satellite Orbit:

Table of predicted SNOs for the next 14.0 days since TLE Epoch: 5/2/2013
Index Date (METOP-B) Time (METOP-B) Lat,Lon (METOP-B) SZA (METOP-B ) Date (NOAA-19) Time (NOAA-19) Lat,Lon (NOAA-19) SZA (NOAA-19 ) Distance(km) Time Diff (sec)
1 05/04/2013 20:37:17 73.78,-134.84 57.55 05/04/2013 20:36:08 73.80,-137.09 57.67 69.89 69
2 05/04/2013 21:28:09 -73.28, 31.35 122.93 05/04/2013 21:26:54 -73.30, 31.38 122.90 2.30 75
3 05/04/2013 22:18:49 73.26,-161.37 57.05 05/04/2013 22:18:02 73.28,-161.37 57.08 2.81 47
4 05/04/2013 23:09:31 -73.26, 5.97 122.96 05/04/2013 23:08:58 -73.27, 5.93 122.95 1.40 33
5 05/05/2013 00:00:11 73.24, 173.25 57.01 05/05/2013 00:00:06 73.25, 173.18 57.03 2.79 5
6 05/05/2013 00:50:53 -73.24, -19.41 123.00 05/05/2013 00:51:02 -73.24, -19.52 123.00 3.53 9
7 05/05/2013 01:41:34 73.17, 147.76 56.93 05/05/2013 01:42:09 73.17, 147.84 56.92 2.50 35
8 05/05/2013 02:32:16 -73.18, -44.90 123.08 05/05/2013 02:33:05 -73.16, -44.86 123.11 2.33 49
9 05/05/2013 03:22:58 73.05, 122.17 56.80 05/05/2013 03:24:11 73.04, 122.61 56.76 14.52 73
10 05/05/2013 04:13:51 -72.50, -71.66 123.72 05/05/2013 04:14:57 -72.53, -69.02 123.80 88.07 66
11 05/14/2013 22:11:55 73.32,-159.50 54.49 05/14/2013 22:10:45 73.29,-159.52 54.47 3.50 70
12 05/14/2013 23:02:37 -73.32, 7.82 125.53 05/14/2013 23:01:41 -73.30, 7.74 125.54 3.31 56
13 05/14/2013 23:53:18 73.25, 175.01 54.41 05/14/2013 23:52:49 73.26, 175.03 54.42 1.26 29
14 05/15/2013 00:44:00 -73.25, -17.68 125.61 05/15/2013 00:43:45 -73.27, -17.71 125.59 2.32 15
15 05/15/2013 01:34:40 73.24, 149.63 54.38 05/15/2013 01:34:53 73.24, 149.58 54.38 1.63 13
16 05/15/2013 02:25:22 -73.23, -43.06 125.64 05/15/2013 02:25:49 -73.24, -43.16 125.63 3.50 27
17 05/15/2013 03:16:03 73.17, 124.14 54.29 05/15/2013 03:16:56 73.16, 124.24 54.28 3.34 53
18 05/15/2013 04:06:45 -73.16, -68.55 125.72 05/15/2013 04:07:52 -73.16, -68.51 125.73 1.42 67




NCC Satellite Simultaneous Nadir Overpasses (SN
